Wind_Speed
3 2 3 2 3 4 3 4 5 3 0 3 5 5 4 3 5 6 7 8 7 8 8 9 13 13 14 17 15 14 16 15 13 14 17 21 18 16 17 18 17 18 21 26 26 24 25 27 29 31 28 26 25 24 23 22 21 20 18 18 18 17 16 14 15 16 18 19 19 17 13 6 4 4
3 3 4 4 4 3 4 5 6 3 1 4 6 5 4 4 5 5 5 7 8 8 7 6 10 14 16 18 16 14 14 16 16 15 18 20 19 17 18 19 19 19 22 25 24 23 25 26 27 28 28 28 28 25 22 21 20 19 17 17 17 16 14 13 13 15 16 17 18 17 15 10 3 3
5 6 6 6 6 5 4 4 5 4 2 4 5 4 4 4 5 4 5 7 7 7 8 7 6 9 14 16 16 13 13 15 15 14 17 19 18 18 18 19 20 19 21 22 21 23 25 24 25 26 27 29 29 25 22 20 19 18 16 16 15 15 13 12 12 14 15 16 17 16 16 12 6 1
6 7 6 6 6 7 7 6 5 5 5 5 5 5 5 5 5 5 6 7 8 7 8 8 6 7 11 13 14 13 13 13 13 15 17 18 18 18 18 19 19 19 20 20 21 23 23 22 23 24 25 28 28 25 23 20 19 18 16 15 14 14 12 11 11 12 13 15 16 16 15 14 10 4
7 7 7 7 7 7 6 5 5 6 6 6 7 6 6 6 6 6 7 8 9 8 7 9 9 8 9 11 12 13 13 13 14 16 18 17 18 18 18 19 18 19 20 19 20 21 21 22 21 20 24 28 27 25 23 21 19 17 15 14 13 13 12 10 10 11 12 13 15 15 15 14 12 8
8 8 8 7 5 4 4 4 4 6 6 6 7 6 5 5 6 7 8 9 10 10 9 9 10 9 9 11 12 11 11 13 15 17 17 17 18 18 18 18 18 19 20 18 19 21 21 21 19 19 25 27 25 24 23 22 20 18 15 14 13 12 11 10 9 10 10 11 13 14 14 14 13 11
6 7 7 6 5 4 6 6 4 5 5 5 6 5 3 5 7 8 8 9 10 11 12 12 11 11 11 11 10 10 11 14 16 16 16 18 19 18 17 18 18 18 18 18 20 21 20 20 19 21 26 26 22 21 21 20 20 19 17 14 13 12 11 10 9 9 9 9 11 12 13 14 13 12
6 7 6 6 5 6 8 7 6 6 5 5 6 5 4 7 7 6 7 8 9 11 13 13 14 14 13 12 12 12 13 15 16 16 16 18 20 19 19 20 19 19 18 18 21 21 19 19 21 23 26 24 20 18 18 18 18 19 19 16 13 12 12 11 9 9 8 8 9 10 12 13 13 12
8 8 7 7 7 7 7 6 6 7 6 6 6 4 5 8 7 6 7 8 9 11 13 14 15 15 14 14 13 13 14 15 16 15 16 18 20 20 21 21 21 20 19 20 22 21 20 20 22 24 25 22 17 16 15 15 16 17 19 18 14 12 11 11 10 9 8 8 8 9 10 11 12 12
9 9 8 9 8 8 7 6 6 8 8 6 5 6 7 8 8 8 8 8 9 10 12 13 14 14 14 14 14 14 14 16 17 17 19 20 19 19 20 22 24 24 23 25 25 21 19 21 24 26 23 16 14 14 13 13 14 15 18 19 16 13 11 11 11 10 8 7 7 8 8 9 10 11
10 9 10 9 7 8 9 8 7 7 8 6 5 7 8 7 8 9 7 8 9 11 12 13 13 13 13 14 15 15 15 16 16 18 21 21 18 17 20 24 28 28 27 28 26 20 20 26 27 25 18 12 12 14 13 13 13 14 18 20 19 16 12 10 10 11 9 8 7 7 8 8 9 9
10 10 11 10 9 10 11 9 8 8 8 8 8 8 8 8 10 11 10 11 13 14 15 15 15 15 14 14 15 15 15 16 17 18 20 20 18 20 24 27 29 28 28 27 25 24 27 29 26 21 16 12 12 14 13 12 14 17 19 20 21 19 14 11 10 10 10 9 8 7 7 8 8 8
10 11 12 10 10 12 12 12 11 10 11 12 12 12 14 14 14 14 14 14 14 14 15 15 15 15 15 15 15 16 16 16 17 18 19 20 22 25 27 28 27 27 27 27 28 29 28 25 21 20 18 14 14 16 15 13 17 20 20 21 22 20 16 12 10 9 10 10 9 8 8 8 8 8
13 13 11 10 11 13 14 12 12 12 14 16 17 17 17 15 14 13 13 13 13 13 14 14 14 14 15 15 16 16 17 17 19 20 22 25 26 26 28 30 29 28 28 31 32 30 24 20 21 21 20 18 17 17 16 16 19 20 20 21 21 18 16 14 12 10 9 10 10 10 9 9 8 8
14 13 11 11 12 13 14 13 13 14 15 15 15 14 12 11 11 12 13 13 13 13 14 14 14 15 17 17 18 19 20 22 24 24 25 27 27 27 29 32 33 31 31 32 32 26 20 20 22 22 21 21 19 17 17 18 19 19 20 21 19 16 17 17 15 12 10 9 10 11 11 11 10 10
14 15 14 13 11 10 10 11 11 13 14 13 11 10 9 10 11 12 13 14 14 15 16 16 16 16 18 20 21 22 24 26 27 27 28 29 30 30 31 33 35 32 29 26 25 23 21 20 21 21 20 19 18 16 17 18 19 19 19 18 17 17 19 20 18 15 12 11 10 10 11 12 12 12
17 18 18 16 14 11 10 9 9 12 14 14 12 11 11 11 11 12 14 15 16 16 17 17 17 16 17 20 22 22 24 27 29 29 31 30 30 30 30 30 30 26 22 20 21 24 23 21 20 20 18 15 14 14 16 17 17 17 16 15 16 18 21 21 19 16 15 13 12 11 11 12 13 13
19 19 18 16 15 13 11 10 9 11 14 14 12 12 12 11 12 14 14 14 15 16 16 17 17 17 16 19 22 25 26 29 29 30 31 30 28 28 26 24 23 21 19 18 20 23 23 21 20 19 18 17 16 17 18 16 15 16 15 15 17 20 22 21 19 17 17 15 14 14 13 13 13 14
19 19 18 16 14 12 11 11 11 12 14 14 13 13 13 12 12 14 15 15 15 16 17 18 19 20 19 21 25 27 27 27 27 27 27 25 24 23 22 21 20 18 16 15 18 21 21 20 20 20 21 21 21 21 19 15 14 17 17 16 18 21 21 21 19 19 18 16 15 15 15 15 15 15
18 19 18 15 14 13 14 14 14 14 14 14 14 15 15 15 14 14 16 17 17 17 18 20 21 22 23 24 24 24 23 22 21 20 20 19 19 19 20 20 19 17 16 16 17 18 19 20 22 23 23 23 24 22 18 13 15 18 18 18 19 20 20 20 20 20 19 17 16 15 16 16 16 16
18 18 17 15 15 16 18 18 17 16 15 15 17 16 16 17 16 16 17 17 17 18 19 21 21 21 22 22 21 19 16 14 15 16 17 18 18 20 21 21 21 21 19 16 16 18 21 22 24 26 26 25 25 23 18 15 16 17 17 19 20 19 19 20 19 19 18 18 17 17 17 17 17 16
17 17 16 16 16 17 19 20 19 18 17 17 17 17 17 17 16 16 18 18 18 19 20 20 19 19 19 18 16 14 11 11 15 17 18 19 19 20 21 20 22 23 19 15 18 22 24 25 25 27 29 28 25 21 19 18 18 18 18 19 18 18 18 19 19 19 18 18 18 18 18 18 18 18
17 18 17 17 18 18 19 20 19 19 19 18 17 17 17 16 15 16 19 19 19 19 19 18 17 16 16 15 14 13 12 14 15 14 15 18 18 19 20 20 22 24 22 20 22 25 26 27 27 27 28 30 27 22 20 21 21 20 18 16 16 17 18 19 19 19 19 20 19 18 18 18 19 19
17 18 18 19 19 19 19 19 18 18 17 17 16 16 16 15 15 16 17 16 17 17 17 16 16 16 15 16 16 13 11 13 13 11 11 14 15 17 20 20 21 22 22 22 23 24 25 25 25 24 23 24 26 25 23 22 22 21 19 17 17 19 19 20 20 19 19 20 19 18 19 19 20 20
17 17 18 19 19 17 17 16 16 16 15 16 15 14 13 13 13 14 15 14 15 16 17 17 17 16 16 16 15 11 8 9 11 11 11 13 16 18 19 18 18 20 20 20 20 22 22 22 22 23 23 22 23 25 25 25 23 21 21 22 22 22 21 21 22 21 20 20 19 19 19 20 21 23
13 14 16 18 19 18 16 14 13 13 13 13 12 11 11 11 13 14 14 15 15 16 17 17 16 15 15 14 13 11 8 9 13 14 15 17 18 16 14 14 17 19 20 20 19 19 20 20 22 24 25 25 25 26 27 27 26 24 24 25 24 23 22 23 23 23 21 20 20 20 20 21 22 23
8 11 12 13 13 14 14 14 14 14 13 12 11 11 11 12 13 14 14 14 15 15 15 14 13 12 12 12 11 12 12 14 16 18 20 19 16 13 12 13 15 17 19 21 20 17 17 19 21 22 24 26 27 28 29 30 30 30 29 27 25 24 25 25 24 22 20 19 19 19 19 20 21 22
9 11 12 11 11 12 13 13 14 14 13 12 11 11 12 12 12 13 12 13 13 13 12 13 13 12 11 10 10 13 15 17 19 21 21 18 14 14 15 16 17 18 19 19 16 13 14 18 19 19 21 23 26 28 30 31 32 31 31 30 28 26 25 24 24 22 21 20 20 21 21 21 21 21
12 12 13 13 14 13 13 12 12 11 11 11 11 11 11 10 10 9 9 9 9 10 12 13 13 11 9 8 10 15 17 19 20 19 17 17 17 19 20 19 19 19 18 16 13 10 13 16 18 19 21 23 25 27 29 30 31 30 29 31 31 28 23 22 23 23 23 23 22 23 23 23 23 23
12 12 13 14 14 13 12 10 9 8 7 7 8 7 6 5 6 7 7 8 9 11 13 13 10 7 8 11 14 15 16 17 17 16 16 19 21 22 23 23 22 21 19 17 14 11 12 16 18 19 21 22 23 25 28 30 31 30 29 29 30 29 24 22 22 23 23 24 24 24 24 24 24 25
9 9 9 9 9 8 7 5 3 3 4 6 6 4 3 5 8 9 8 8 9 10 12 12 9 8 13 16 15 15 16 16 15 15 16 18 20 22 24 25 25 23 22 19 16 14 15 17 18 18 20 22 24 25 26 28 30 32 32 30 28 27 25 23 23 23 23 24 25 26 25 24 24 25
8 7 5 4 2 1 2 2 3 6 8 7 6 6 6 7 8 10 10 10 10 10 11 10 9 12 15 15 14 15 17 16 15 15 16 18 20 22 23 24 24 25 24 22 20 19 19 19 19 19 19 21 24 25 26 27 30 32 31 28 25 25 24 23 23 23 23 24 26 26 26 26 28 30
7 6 5 2 1 2 4 4 4 5 6 6 6 6 5 5 6 7 7 7 8 8 7 7 9 12 13 12 13 15 16 14 14 15 18 19 20 21 21 22 22 23 23 24 24 23 22 21 20 20 21 22 23 24 26 28 28 27 26 25 25 25 24 21 22 23 23 24 26 28 31 34 35 35
6 5 4 3 1 1 2 2 1 3 4 4 4 3 3 4 4 4 5 7 8 8 9 11 12 13 13 13 13 14 14 14 16 18 19 19 19 20 21 22 22 22 23 24 25 24 24 23 23 24 26 26 26 25 23 23 23 22 21 21 23 23 22 22 23 24 24 25 29 35 41 42 38 33
5 4 4 3 1 1 3 2 2 3 4 4 4 4 4 5 5 4 7 10 11 12 14 15 16 15 14 12 12 13 14 15 17 17 18 19 19 20 20 20 21 23 23 24 24 24 25 26 27 30 32 31 31 28 22 16 16 18 19 19 19 20 22 24 26 28 30 32 35 38 40 39 36 31
4 3 1 1 2 2 2 3 3 5 5 6 7 8 8 8 7 7 10 13 14 14 15 15 15 14 13 12 13 14 14 15 17 17 19 20 20 19 19 20 21 22 22 23 24 24 26 28 29 30 30 30 30 29 23 16 14 16 20 23 25 26 29 31 33 34 36 36 35 33 31 31 33 33
1 1 3 4 3 2 3 4 4 5 6 8 9 9 8 8 7 9 12 13 12 10 10 9 9 10 10 11 13 14 14 16 18 19 20 20 19 19 20 21 21 22 22 23 24 25 27 28 26 24 25 25 26 28 29 29 28 27 29 33 37 37 36 36 36 36 35 33 31 29 28 31 34 35
4 5 4 3 3 3 3 4 5 5 6 6 6 7 7 7 9 11 12 11 9 10 11 12 12 12 13 14 15 16 16 17 18 19 19 20 20 20 21 22 22 23 24 25 27 27 26 24 22 21 21 24 27 31 36 40 42 41 39 37 37 36 34 33 34 35 34 32 31 31 32 35 37 37
6 4 2 2 2 2 3 3 4 4 4 4 4 5 6 7 9 10 9 9 10 12 14 14 14 14 15 15 15 16 16 17 17 18 18 19 19 20 21 23 24 25 27 28 27 25 22 20 20 21 24 27 31 35 37 40 43 43 40 35 31 31 31 31 32 34 34 34 34 36 37 37 38 38
2 1 1 1 2 3 2 2 2 2 3 5 5 6 7 8 8 8 9 10 11 11 12 13 13 13 14 14 14 15 15 15 16 17 17 18 19 20 21 22 23 24 25 25 24 23 22 23 24 26 28 31 33 34 35 37 38 38 36 32 28 27 28 29 31 32 34 34 35 37 39 40 42 43
3 2 1 1 1 1 1 2 3 4 4 5 6 7 9 11 10 10 10 10 11 11 11 11 11 11 11 12 13 14 14 14 15 16 17 18 19 19 20 21 21 22 23 24 26 27 28 29 29 30 31 32 32 33 34 35 36 35 33 31 29 28 28 29 29 31 33 35 37 41 42 42 41 40
4 2 2 3 4 4 5 5 6 5 6 7 8 10 12 12 11 10 9 8 9 9 8 9 11 12 10 10 12 15 15 15 14 15 17 19 20 22 23 24 24 25 27 29 30 31 31 32 32 32 31 30 30 31 31 32 34 35 34 34 33 32 31 32 33 35 37 37 37 37 37 35 35 37
4 3 4 6 7 8 9 9 8 7 6 7 9 10 10 10 10 10 10 10 12 12 12 12 13 13 12 13 15 16 17 18 18 20 22 23 23 25 26 26 26 27 28 30 31 32 32 32 31 29 29 28 27 28 31 33 34 36 37 37 37 36 36 36 36 37 36 33 29 28 29 31 36 42
3 2 3 6 8 9 10 10 10 10 9 8 7 7 6 5 7 8 9 10 11 12 12 13 14 14 13 15 15 15 15 17 19 20 22 22 22 23 23 24 25 26 27 28 30 31 31 30 29 28 29 29 29 29 32 34 35 37 38 39 39 39 38 36 36 35 34 34 35 35 36 37 38 40
6 6 8 9 7 7 8 8 9 10 11 11 11 10 9 8 9 9 9 10 12 12 11 12 14 15 15 15 16 15 16 17 18 18 18 18 19 20 21 22 24 25 26 27 29 30 31 31 31 31 31 31 31 31 32 34 36 37 38 38 38 38 37 37 39 40 42 43 41 39 37 36 35 35
Wind_Direction
184 196 228 204 189 219 214 214 248 271 308 229 239 256 272 290 284 272 277 279 279 282 287 305 317 320 325 329 334 336 333 332 340 339 320 319 330 331 334 343 338 332 338 339 336 339 345 348 348 349 354 359 358 354 353 351 350 351 353 354 356 359 360 3 8 8 5 7 14 16 16 35 99 145
202 216 214 209 204 221 233 230 236 238 225 243 244 253 272 293 290 276 282 291 292 295 293 297 313 320 324 327 330 333 329 330 340 335 315 318 330 328 334 346 343 336 336 335 336 342 346 345 344 347 353 359 358 355 353 352 351 352 353 355 357 358 1 4 8 10 7 6 11 17 16 16 48 137
218 226 218 219 215 209 234 249 244 246 259 259 254 244 253 294 307 288 286 300 303 305 302 295 299 315 322 324 329 331 321 321 330 322 310 316 325 327 336 342 337 332 332 334 341 346 344 341 342 346 351 356 357 355 355 354 352 353 354 356 357 358 0 5 9 11 10 7 8 15 18 15 15 88
231 238 228 225 221 213 219 217 225 255 256 251 260 256 259 289 301 288 285 298 306 306 305 310 315 315 316 317 320 320 314 316 318 311 309 317 324 333 338 332 328 332 335 338 345 346 342 340 342 345 347 351 355 356 357 356 353 352 354 356 356 357 360 4 8 12 12 10 8 11 17 18 13 11
227 240 243 237 227 226 235 215 211 247 256 260 274 268 262 275 283 284 286 294 308 316 314 318 323 327 324 315 312 310 310 314 313 310 315 320 325 331 328 323 329 337 338 340 344 343 340 340 343 343 343 347 351 353 357 358 354 351 352 355 355 356 359 1 5 10 12 12 10 9 13 19 18 12
235 241 248 249 239 236 264 256 232 245 245 249 268 265 258 276 289 296 298 303 311 315 314 314 315 321 317 303 301 308 314 316 313 313 318 319 323 326 322 325 334 334 334 342 341 336 336 342 346 343 339 342 346 349 354 357 357 354 350 352 355 354 356 359 360 5 9 11 11 9 10 14 20 18
254 255 257 255 249 244 254 257 254 253 244 245 268 276 264 269 281 294 302 308 311 310 313 317 317 320 318 314 321 329 323 314 314 319 321 318 325 332 330 330 333 331 336 343 335 330 336 345 345 337 333 337 342 345 348 352 358 1 357 353 353 353 353 355 355 358 2 6 9 10 7 9 15 20
262 268 272 266 258 248 246 248 251 257 251 243 251 257 261 264 266 275 287 293 300 304 308 316 324 329 332 337 343 335 320 314 318 324 325 324 331 337 332 328 329 334 342 339 329 331 343 344 336 330 329 333 337 339 342 345 350 359 0 356 353 351 350 351 351 352 354 357 1 6 7 5 7 14
247 253 255 255 255 251 254 258 259 259 251 237 244 257 268 272 271 268 275 283 295 304 308 316 326 330 332 334 330 320 314 317 324 331 334 334 332 330 327 326 328 334 336 329 328 338 345 336 327 325 326 330 333 334 339 340 340 350 358 357 353 348 347 348 348 347 346 347 349 355 2 4 3 5
258 263 258 257 255 251 257 259 255 267 271 265 271 276 273 281 285 280 283 294 303 306 306 311 317 318 319 319 318 319 321 324 331 336 333 331 329 327 325 323 325 328 327 325 332 340 335 324 324 327 328 333 337 338 340 337 333 341 351 354 352 346 343 343 343 342 339 337 338 342 348 357 360 359
264 269 270 274 271 261 262 260 251 261 273 271 263 265 269 278 281 280 288 296 298 298 299 304 307 307 310 317 326 336 334 329 331 332 329 329 332 328 318 316 321 325 326 329 334 333 323 324 330 333 338 349 348 343 340 333 330 337 343 347 350 347 340 336 336 337 333 326 324 329 333 340 348 353
261 261 265 270 269 264 265 265 258 248 251 258 258 258 262 265 274 286 295 297 298 301 303 307 309 310 317 326 333 336 331 326 328 328 327 327 323 315 310 313 320 324 328 332 332 327 326 331 337 341 349 359 351 342 336 329 331 337 338 342 347 346 340 333 330 329 327 320 311 310 316 322 330 338
266 260 262 264 261 264 267 268 269 260 259 270 278 281 283 284 289 297 302 305 309 311 310 310 312 316 320 323 323 323 322 321 318 314 311 309 308 308 311 317 322 325 329 330 327 327 332 337 343 350 356 358 348 338 332 330 333 334 335 340 345 344 339 333 328 323 320 317 308 297 296 302 309 318
265 263 267 269 266 269 271 272 273 269 271 279 283 287 291 293 295 301 307 314 317 314 311 309 311 312 309 306 309 314 315 310 305 304 305 307 309 313 316 319 323 326 327 327 326 331 341 346 348 352 356 358 352 340 330 331 334 333 333 338 343 344 341 337 332 323 314 312 308 297 287 285 289 297
275 278 277 273 279 283 275 272 274 271 272 279 282 286 292 296 301 307 311 313 312 308 304 299 298 298 297 300 306 310 310 307 308 310 311 312 313 315 315 315 319 325 327 326 327 333 347 352 348 348 352 353 350 342 333 333 334 333 332 335 340 344 344 342 337 326 313 308 307 301 291 281 277 281
278 272 265 260 274 291 276 262 265 270 274 280 283 290 298 303 307 306 303 303 303 301 297 292 292 294 298 301 304 307 308 309 311 311 312 314 313 311 310 310 315 324 330 330 330 334 345 350 344 340 343 342 340 339 332 328 328 329 330 332 336 339 341 342 339 330 319 307 301 300 295 285 277 274
269 266 268 264 267 285 287 269 257 264 273 277 282 292 298 301 302 296 294 300 305 305 300 294 293 296 301 303 303 305 308 310 312 312 312 315 314 311 312 313 317 329 340 342 334 329 335 341 335 331 332 330 328 328 324 324 329 334 334 332 333 334 336 339 339 336 330 318 305 298 294 287 279 272
270 274 282 281 276 281 285 275 263 265 271 273 280 292 297 300 301 296 297 302 305 304 299 294 294 299 302 302 300 302 306 308 311 312 311 313 314 316 319 320 324 338 350 345 331 325 329 334 331 328 329 327 325 323 324 331 339 338 334 331 328 329 331 333 334 336 335 329 320 309 299 292 285 276
272 278 284 287 282 278 275 273 270 269 270 271 279 287 291 293 295 296 299 302 302 301 299 295 294 295 293 291 295 300 304 306 309 309 308 312 318 322 323 323 329 341 343 333 325 322 324 328 328 325 325 326 327 328 332 340 336 327 324 324 323 323 326 329 331 332 332 331 328 321 312 302 292 284
269 273 274 272 266 263 266 271 273 270 266 267 274 280 283 283 284 288 295 300 300 297 294 291 289 290 290 291 297 304 307 310 313 314 315 322 329 326 323 324 329 332 328 324 322 321 321 323 322 320 322 326 328 332 338 337 323 318 320 322 321 322 324 326 327 328 329 328 326 323 320 314 302 291
267 267 267 265 264 264 264 265 267 267 264 266 271 275 278 281 285 288 289 292 293 292 293 293 292 294 298 302 306 309 313 325 332 329 329 334 336 329 325 326 327 329 332 330 323 319 319 319 317 317 320 323 325 331 336 332 323 322 324 324 325 327 326 326 326 327 327 326 324 322 320 317 312 302
264 261 261 263 266 267 265 263 265 267 266 268 270 274 278 283 285 286 285 286 286 287 292 295 297 302 307 310 313 314 327 347 342 334 334 337 335 331 330 329 329 332 336 332 322 320 319 318 318 319 321 321 324 330 332 330 330 330 326 326 329 328 325 323 323 324 324 323 323 323 319 315 312 310
259 259 259 262 264 266 267 267 268 269 269 270 270 273 278 279 277 279 283 285 285 288 292 295 300 306 310 316 325 333 345 348 338 330 331 333 334 334 334 332 329 326 326 325 323 323 322 320 322 324 324 323 323 326 326 326 329 331 330 332 331 324 320 319 317 316 317 318 319 320 319 316 314 313
259 261 260 261 263 265 267 268 268 269 271 273 272 272 273 273 272 274 277 281 286 292 297 300 304 309 312 321 332 341 351 347 335 326 326 330 332 329 325 323 321 319 321 326 327 327 327 328 329 332 331 324 319 320 323 324 328 333 334 333 328 321 318 317 315 313 312 312 313 314 315 315 315 313
261 263 261 260 261 264 269 272 272 271 272 271 269 268 268 270 271 274 278 283 289 295 301 304 307 311 313 318 327 337 350 340 317 303 305 312 315 316 318 319 317 316 320 323 325 327 330 334 337 338 336 329 321 319 320 323 328 332 329 326 324 323 321 318 318 317 313 310 310 309 307 307 309 310
264 262 259 259 261 266 271 272 272 272 273 272 269 270 273 275 278 282 287 291 296 301 305 307 310 313 314 319 328 335 330 304 288 288 297 307 313 320 324 320 314 313 314 316 322 330 332 334 337 335 332 328 322 319 320 323 326 326 325 325 326 327 327 326 324 322 318 313 309 305 301 300 302 304
255 253 257 261 264 269 271 272 274 278 282 282 279 278 281 283 287 290 293 297 301 303 304 309 317 320 322 331 335 322 304 293 295 304 312 317 322 323 313 304 303 306 310 314 321 327 326 327 330 327 323 322 320 319 319 320 320 321 321 322 323 326 328 328 327 325 322 317 313 308 304 301 301 300
234 248 262 273 277 281 281 278 278 282 287 288 286 287 290 292 294 298 300 302 302 303 311 320 325 326 335 345 330 305 297 298 303 310 317 322 322 315 308 305 307 310 314 319 326 330 329 329 326 317 313 314 315 315 315 315 316 318 318 317 318 322 325 325 326 326 323 321 320 316 312 310 305 300
236 250 262 270 275 280 281 279 280 283 285 287 289 293 296 297 300 306 311 310 308 317 327 326 321 327 339 328 300 291 293 300 307 316 322 321 318 315 312 312 315 321 328 336 343 343 331 320 310 303 304 307 308 309 312 314 316 318 319 319 320 323 325 325 324 323 320 319 320 318 315 314 310 306
242 250 257 263 268 274 277 280 284 287 289 296 301 297 294 308 323 327 329 329 329 331 329 326 327 332 313 295 294 298 304 313 323 328 323 318 317 319 319 320 323 329 336 342 346 338 318 306 303 305 308 308 307 307 310 313 316 319 322 324 324 324 326 327 324 322 319 317 316 313 311 310 309 307
253 251 255 263 270 276 277 273 284 326 345 349 346 344 352 353 345 337 336 340 333 322 321 328 334 313 297 303 316 321 320 326 332 327 321 319 318 317 320 324 327 330 335 339 339 329 316 313 315 315 313 310 308 308 310 311 312 317 323 328 327 324 325 326 324 322 318 312 308 306 305 306 306 306
276 275 285 283 265 314 351 358 9 4 0 359 1 7 6 349 333 327 330 334 329 319 322 329 318 298 300 315 325 319 319 327 329 322 318 315 312 317 325 330 330 330 332 332 329 324 323 324 324 320 316 313 310 311 311 310 309 313 320 326 329 326 326 327 323 317 312 307 303 301 301 303 306 306
293 303 311 281 180 53 16 1 351 346 345 348 351 354 347 326 315 317 316 311 308 306 304 295 284 287 299 311 313 313 320 327 323 315 313 314 318 326 331 329 326 326 325 324 324 327 328 328 324 319 314 310 308 309 310 309 311 317 322 325 328 328 325 320 311 304 302 299 298 300 301 304 307 307
298 304 290 235 163 25 316 274 310 329 322 323 320 307 294 293 297 301 292 277 267 264 262 261 269 284 299 309 312 315 319 319 315 313 312 313 318 322 322 321 321 320 319 321 324 327 326 324 320 316 313 312 311 313 315 315 320 327 328 324 321 316 306 297 293 293 293 293 298 303 306 307 308 307
305 296 251 213 184 317 269 253 308 303 280 276 267 249 245 257 258 267 283 276 265 264 269 274 281 293 303 309 310 309 312 314 312 309 307 309 315 319 320 319 317 315 316 318 319 319 318 318 317 317 319 321 321 323 330 336 331 324 318 310 303 296 290 288 290 291 293 296 302 306 309 311 311 312
305 291 235 126 52 357 303 285 277 263 257 261 260 256 260 268 272 278 281 277 275 280 287 293 300 306 310 309 304 301 304 305 301 299 303 311 318 321 318 314 313 313 313 313 313 312 311 312 316 321 324 327 327 325 324 318 305 301 303 301 298 295 295 295 296 297 301 306 311 314 315 314 312 313
339 61 57 42 14 311 279 275 272 271 273 274 275 281 289 292 287 276 271 277 288 296 293 292 297 297 292 290 289 288 288 292 295 300 308 314 316 315 313 312 312 312 310 308 308 309 311 316 324 329 328 325 323 317 309 301 296 296 300 302 302 302 304 307 308 310 312 316 317 317 313 307 305 305
70 69 39 350 294 276 282 290 292 295 300 303 306 308 302 289 279 276 278 287 295 286 273 267 267 271 274 279 284 285 285 290 298 306 311 314 313 312 310 309 308 308 307 307 309 313 319 325 329 327 320 317 316 313 309 304 302 302 305 308 309 311 314 317 317 316 317 316 313 308 303 300 300 301
56 47 360 295 292 316 320 315 317 322 322 317 305 298 296 294 293 296 298 292 282 280 282 284 288 295 301 306 307 304 301 302 306 310 311 311 310 309 308 307 307 307 308 309 312 317 321 321 316 309 305 306 308 309 307 304 302 304 309 313 314 314 314 314 312 310 310 309 307 304 301 298 297 296
30 324 297 307 336 341 330 316 315 306 295 288 282 286 292 290 291 299 303 297 297 305 313 316 319 321 321 319 316 314 312 311 310 308 307 306 305 305 304 304 304 306 307 309 309 308 307 305 304 303 303 303 304 305 305 303 302 304 308 311 311 309 307 306 306 306 305 305 306 306 304 302 301 304
234 226 341 326 282 262 270 281 271 270 287 296 291 284 280 277 283 299 310 314 318 322 323 322 315 306 303 307 306 302 301 302 303 303 302 299 296 295 294 294 297 302 305 305 303 303 302 302 300 300 300 301 303 305 305 303 303 305 307 307 306 303 301 300 300 299 300 301 302 302 303 304 306 309
251 258 290 281 264 255 260 271 275 282 298 302 296 293 293 293 297 301 302 300 295 286 283 289 288 279 278 288 292 289 287 290 295 297 294 291 289 290 293 296 300 303 304 303 302 302 302 302 303 304 305 306 308 308 306 304 304 305 305 305 305 304 302 300 297 297 300 302 302 301 302 307 310 309
316 318 303 287 277 271 271 275 277 279 291 304 308 308 311 317 319 315 308 301 291 282 282 287 288 286 286 290 293 297 299 298 295 295 295 296 298 301 302 304 305 305 305 304 304 304 305 308 311 312 311 310 309 307 303 302 302 302 302 303 304 303 304 304 304 305 307 307 303 297 294 298 302 302
314 304 288 282 280 282 285 286 280 273 270 273 278 280 288 308 316 313 312 310 304 300 301 298 292 289 289 287 289 296 300 299 298 300 304 307 308 308 307 305 305 305 306 306 306 307 309 310 311 310 308 306 305 304 302 301 302 302 302 303 304 305 307 308 307 306 302 297 295 294 294 296 299 301
286 273 273 277 285 298 300 293 287 282 274 269 269 270 270 275 281 287 297 302 298 293 289 283 278 276 277 278 281 285 288 291 295 299 301 302 304 305 305 305 305 306 306 306 306 306 306 306 306 306 306 305 304 303 301 301 301 302 303 304 305 306 308 307 306 304 302 300 302 305 306 306 305 303
Height
1608 1608 1609 1609 1610 1610 1609 1609 1608 1608 1608 1608 1608 1608 1607 1607 1606 1606 1605 1605 1604 1603 1603 1602 1601 1600 1600 1599 1598 1597 1596 1595 1594 1593 1593 1592 1592 1590 1589 1587 1586 1585 1583 1582 1580 1579 1578 1576 1574 1573 1571 1569 1566 1564 1562 1560 1558 1557 1555 1554 1552 1551 1550 1549 1548 1547 1545 1544 1543 1542 1541 1540 1540 1541
1607 1608 1608 1608 1608 1608 1608 1608 1607 1607 1607 1607 1607 1607 1607 1606 1606 1605 1605 1605 1604 1603 1602 1601 1600 1600 1599 1599 1598 1597 1596 1595 1594 1594 1593 1592 1591 1590 1589 1587 1586 1585 1583 1582 1580 1578 1577 1575 1574 1572 1570 1568 1566 1564 1562 1560 1558 1556 1555 1554 1552 1551 1550 1549 1548 1547 1546 1545 1544 1543 1542 1541 1541 1541
1606 1606 1607 1607 1607 1607 1607 1607 1607 1607 1607 1607 1606 1606 1606 1606 1605 1605 1605 1604 1603 1602 1601 1600 1600 1599 1599 1599 1598 1597 1596 1595 1594 1594 1593 1592 1591 1590 1588 1587 1586 1584 1583 1581 1580 1578 1577 1575 1573 1572 1570 1568 1566 1564 1562 1560 1558 1556 1555 1554 1553 1551 1550 1549 1548 1547 1547 1546 1545 1544 1543 1542 1541 1541
1604 1605 1605 1605 1606 1606 1606 1606 1606 1606 1607 1606 1606 1606 1605 1605 1605 1605 1604 1603 1603 1602 1601 1600 1599 1599 1599 1599 1598 1597 1596 1595 1595 1594 1593 1592 1590 1589 1587 1586 1585 1583 1582 1580 1579 1577 1576 1574 1573 1571 1570 1568 1566 1564 1562 1560 1558 1556 1555 1554 1553 1552 1550 1550 1549 1548 1547 1546 1545 1544 1544 1543 1542 1542
1603 1603 1604 1604 1604 1604 1605 1605 1606 1606 1606 1606 1605 1605 1605 1604 1604 1604 1603 1603 1602 1601 1601 1600 1599 1598 1598 1598 1598 1597 1596 1595 1594 1593 1592 1591 1590 1588 1587 1586 1584 1582 1581 1579 1578 1577 1575 1574 1572 1571 1569 1568 1566 1564 1562 1560 1558 1556 1555 1554 1553 1552 1551 1550 1549 1548 1547 1547 1546 1545 1544 1544 1543 1542
1602 1602 1602 1603 1603 1603 1604 1604 1604 1605 1605 1605 1604 1604 1604 1604 1604 1603 1603 1603 1602 1601 1600 1600 1599 1598 1598 1598 1597 1596 1595 1594 1594 1592 1591 1590 1589 1588 1586 1585 1583 1582 1580 1579 1577 1576 1574 1573 1571 1570 1569 1567 1565 1564 1562 1560 1558 1557 1555 1554 1553 1552 1551 1550 1549 1549 1548 1547 1546 1545 1545 1544 1543 1543
1601 1601 1601 1602 1602 1603 1603 1603 1603 1604 1604 1604 1603 1603 1604 1604 1603 1603 1603 1602 1602 1601 1600 1599 1598 1598 1597 1597 1596 1595 1595 1594 1593 1591 1590 1589 1588 1586 1585 1584 1582 1581 1579 1578 1577 1575 1573 1572 1571 1569 1568 1566 1565 1563 1562 1560 1559 1557 1556 1554 1553 1552 1551 1550 1549 1549 1548 1547 1547 1546 1545 1544 1544 1543
1600 1600 1600 1601 1601 1602 1602 1602 1603 1603 1603 1603 1603 1603 1603 1603 1603 1602 1602 1602 1601 1600 1599 1599 1598 1597 1597 1596 1595 1595 1594 1593 1592 1590 1589 1588 1586 1585 1584 1582 1581 1580 1578 1577 1576 1574 1573 1571 1570 1569 1567 1565 1564 1563 1561 1560 1559 1557 1556 1555 1553 1552 1551 1550 1549 1549 1548 1547 1547 1546 1545 1545 1544 1543
1599 1599 1600 1600 1600 1601 1601 1601 1602 1602 1602 1601 1602 1603 1603 1602 1602 1601 1601 1601 1600 1600 1599 1598 1597 1597 1596 1595 1595 1594 1593 1592 1590 1589 1588 1587 1585 1584 1583 1581 1580 1579 1578 1577 1575 1573 1572 1571 1569 1568 1566 1564 1563 1562 1561 1560 1558 1557 1556 1555 1553 1552 1551 1550 1549 1549 1548 1547 1547 1546 1546 1545 1544 1544
1598 1598 1598 1599 1599 1600 1600 1601 1601 1601 1601 1601 1601 1602 1602 1601 1601 1601 1600 1600 1599 1599 1598 1597 1596 1596 1596 1595 1594 1594 1592 1591 1589 1588 1587 1586 1585 1583 1581 1580 1579 1578 1576 1575 1573 1572 1571 1570 1568 1566 1564 1562 1561 1560 1560 1559 1558 1557 1556 1555 1553 1552 1551 1550 1549 1549 1548 1547 1547 1546 1546 1545 1545 1544
1597 1598 1598 1598 1598 1599 1599 1599 1600 1600 1600 1600 1601 1601 1601 1600 1600 1600 1599 1599 1598 1598 1597 1596 1596 1595 1595 1594 1593 1592 1591 1590 1589 1588 1586 1584 1583 1582 1580 1578 1577 1576 1575 1573 1571 1570 1570 1568 1566 1564 1562 1561 1560 1559 1559 1558 1557 1556 1555 1554 1553 1552 1550 1550 1549 1548 1548 1547 1547 1546 1546 1545 1545 1544
1597 1597 1597 1597 1597 1598 1598 1598 1598 1599 1599 1599 1599 1599 1599 1599 1599 1598 1598 1598 1597 1597 1596 1595 1594 1594 1593 1592 1592 1591 1590 1589 1588 1587 1586 1583 1582 1580 1579 1577 1576 1574 1572 1570 1569 1569 1567 1565 1563 1562 1561 1560 1559 1558 1557 1557 1556 1555 1554 1553 1552 1551 1550 1549 1548 1547 1547 1547 1546 1546 1545 1545 1545 1544
1595 1596 1596 1596 1596 1596 1596 1596 1597 1597 1598 1598 1598 1598 1598 1598 1598 1597 1597 1596 1596 1595 1594 1594 1593 1592 1592 1591 1591 1590 1589 1588 1587 1585 1584 1582 1580 1579 1577 1575 1575 1573 1571 1569 1567 1566 1565 1563 1562 1561 1559 1558 1557 1557 1556 1556 1555 1554 1553 1552 1551 1550 1549 1548 1547 1546 1546 1546 1545 1545 1545 1544 1544 1544
1594 1595 1595 1596 1596 1596 1596 1596 1596 1596 1596 1596 1596 1596 1596 1596 1596 1596 1596 1595 1595 1594 1593 1592 1592 1591 1591 1590 1589 1588 1587 1586 1585 1583 1582 1580 1578 1577 1575 1573 1573 1572 1570 1567 1565 1564 1563 1562 1560 1559 1559 1558 1557 1556 1556 1555 1554 1553 1552 1551 1550 1549 1548 1547 1546 1545 1545 1545 1544 1544 1544 1544 1543 1543
1594 1594 1594 1594 1594 1594 1594 1595 1595 1595 1595 1595 1595 1595 1595 1595 1595 1594 1594 1594 1593 1593 1591 1591 1590 1590 1589 1588 1587 1587 1585 1584 1583 1582 1580 1579 1577 1575 1573 1571 1569 1570 1569 1566 1563 1562 1562 1561 1559 1558 1558 1557 1556 1556 1555 1555 1554 1552 1551 1550 1549 1548 1547 1547 1546 1545 1544 1543 1543 1543 1543 1543 1542 1542
1591 1590 1590 1590 1590 1591 1591 1592 1593 1594 1594 1593 1593 1593 1593 1593 1593 1593 1592 1592 1591 1591 1590 1589 1588 1588 1587 1586 1585 1585 1583 1581 1581 1579 1578 1577 1575 1574 1572 1570 1568 1567 1567 1565 1562 1560 1560 1560 1559 1557 1557 1557 1556 1556 1555 1554 1553 1552 1551 1550 1549 1548 1547 1546 1545 1544 1543 1542 1542 1541 1541 1541 1541 1541
1589 1588 1588 1589 1590 1591 1591 1592 1592 1593 1592 1591 1591 1591 1591 1591 1592 1591 1591 1590 1590 1589 1588 1587 1587 1586 1585 1584 1583 1583 1581 1579 1578 1577 1575 1574 1573 1571 1570 1568 1567 1566 1565 1563 1561 1559 1559 1559 1558 1557 1556 1556 1556 1555 1554 1553 1552 1551 1550 1549 1548 1547 1546 1545 1544 1543 1542 1541 1541 1540 1540 1540 1540 1540
1586 1586 1587 1588 1589 1590 1590 1591 1591 1591 1590 1590 1589 1589 1589 1589 1589 1589 1589 1589 1588 1588 1587 1586 1585 1585 1584 1582 1581 1580 1579 1578 1576 1575 1573 1572 1570 1569 1568 1567 1566 1565 1564 1563 1561 1559 1559 1558 1557 1556 1555 1555 1554 1553 1552 1551 1551 1549 1548 1548 1547 1546 1545 1544 1543 1542 1541 1540 1539 1539 1538 1538 1538 1538
1585 1585 1585 1587 1587 1588 1588 1589 1589 1589 1588 1588 1587 1587 1587 1588 1588 1587 1587 1587 1587 1586 1586 1585 1584 1583 1582 1581 1580 1579 1578 1576 1575 1573 1572 1570 1569 1567 1566 1565 1564 1564 1564 1563 1561 1559 1558 1557 1556 1554 1554 1553 1552 1551 1550 1550 1549 1548 1547 1547 1546 1545 1544 1542 1541 1540 1540 1539 1538 1537 1537 1536 1536 1536
1584 1584 1584 1584 1584 1584 1584 1585 1586 1586 1586 1586 1586 1585 1586 1586 1586 1586 1585 1585 1584 1584 1583 1583 1582 1581 1580 1579 1578 1577 1576 1575 1573 1572 1570 1569 1568 1566 1564 1564 1563 1563 1563 1562 1560 1559 1557 1556 1555 1553 1552 1551 1550 1549 1549 1548 1548 1547 1546 1545 1544 1543 1542 1541 1540 1539 1538 1537 1537 1536 1535 1534 1534 1534
1583 1582 1582 1582 1582 1582 1582 1582 1583 1584 1584 1584 1584 1584 1584 1584 1584 1584 1583 1583 1582 1581 1580 1580 1580 1579 1578 1577 1576 1575 1574 1573 1572 1570 1569 1568 1567 1565 1563 1562 1562 1561 1561 1560 1559 1558 1557 1555 1553 1551 1550 1549 1548 1547 1547 1547 1546 1545 1544 1543 1542 1541 1540 1540 1539 1538 1537 1536 1535 1535 1534 1533 1532 1531
1580 1580 1580 1580 1580 1580 1580 1581 1581 1581 1581 1582 1582 1581 1582 1582 1581 1581 1580 1580 1580 1579 1578 1578 1577 1577 1576 1575 1575 1574 1573 1572 1571 1570 1568 1567 1566 1564 1563 1561 1560 1559 1559 1559 1558 1556 1555 1554 1552 1550 1547 1546 1546 1546 1545 1544 1544 1543 1542 1541 1540 1540 1539 1538 1537 1536 1536 1535 1534 1533 1532 1531 1530 1529
1578 1578 1579 1579 1579 1579 1579 1579 1579 1579 1579 1579 1579 1579 1579 1579 1579 1578 1577 1577 1577 1576 1576 1576 1575 1575 1574 1574 1573 1572 1571 1571 1570 1569 1568 1566 1565 1564 1562 1561 1559 1557 1557 1557 1556 1554 1553 1551 1551 1549 1546 1543 1542 1543 1544 1543 1542 1542 1541 1539 1539 1538 1537 1537 1536 1535 1534 1533 1533 1532 1531 1530 1529 1528
1575 1576 1576 1576 1576 1576 1576 1576 1576 1576 1577 1577 1577 1577 1577 1576 1576 1576 1575 1575 1575 1574 1574 1574 1573 1573 1572 1572 1571 1571 1570 1570 1569 1568 1567 1566 1565 1564 1562 1561 1560 1558 1556 1556 1555 1553 1551 1550 1549 1548 1547 1544 1541 1540 1541 1541 1541 1540 1539 1538 1537 1537 1536 1535 1534 1533 1532 1532 1531 1530 1529 1528 1527 1526
1573 1573 1573 1574 1574 1574 1574 1574 1574 1574 1575 1575 1575 1575 1574 1574 1574 1574 1574 1573 1573 1573 1572 1572 1571 1571 1571 1571 1570 1570 1570 1570 1568 1566 1566 1565 1564 1563 1562 1560 1559 1557 1556 1555 1554 1553 1551 1549 1547 1546 1546 1545 1542 1539 1538 1539 1539 1539 1538 1537 1536 1535 1534 1533 1531 1531 1530 1529 1529 1528 1527 1526 1526 1525
1571 1571 1571 1571 1572 1572 1572 1573 1573 1573 1573 1573 1573 1573 1573 1573 1573 1572 1572 1572 1571 1571 1570 1570 1570 1569 1569 1569 1568 1568 1568 1567 1566 1565 1565 1564 1563 1562 1561 1560 1558 1557 1555 1554 1554 1552 1550 1548 1547 1546 1545 1543 1541 1539 1537 1536 1536 1536 1536 1535 1534 1533 1532 1531 1529 1528 1527 1527 1526 1525 1525 1524 1523 1523
1569 1569 1569 1570 1570 1570 1570 1571 1571 1571 1571 1571 1571 1571 1571 1571 1571 1570 1570 1570 1569 1569 1569 1568 1568 1568 1567 1567 1567 1566 1566 1564 1563 1563 1562 1561 1560 1559 1559 1558 1557 1556 1554 1553 1552 1551 1550 1548 1547 1546 1545 1542 1540 1538 1536 1535 1534 1533 1533 1532 1532 1531 1530 1529 1527 1526 1525 1524 1523 1522 1522 1521 1521 1520
1567 1568 1568 1568 1569 1569 1569 1569 1569 1569 1569 1569 1569 1570 1569 1569 1569 1569 1568 1568 1568 1567 1567 1567 1566 1566 1566 1566 1565 1564 1563 1562 1562 1561 1560 1558 1558 1557 1556 1555 1555 1554 1552 1551 1550 1550 1549 1548 1547 1545 1544 1542 1540 1538 1536 1533 1532 1531 1530 1529 1529 1529 1528 1527 1525 1524 1523 1522 1521 1520 1519 1519 1518 1517
1567 1568 1568 1568 1568 1568 1568 1568 1568 1568 1568 1568 1568 1568 1567 1567 1567 1567 1567 1566 1566 1566 1566 1565 1565 1565 1565 1565 1564 1563 1562 1561 1560 1559 1558 1556 1556 1555 1554 1553 1552 1551 1550 1549 1548 1548 1548 1547 1546 1544 1543 1541 1540 1538 1535 1533 1530 1529 1528 1526 1525 1525 1525 1524 1523 1522 1521 1520 1519 1518 1517 1516 1515 1514
1567 1567 1567 1567 1567 1566 1566 1566 1566 1566 1566 1566 1566 1566 1566 1566 1566 1566 1565 1565 1565 1565 1565 1564 1564 1564 1564 1563 1562 1562 1561 1560 1559 1557 1556 1555 1554 1553 1551 1550 1549 1549 1548 1547 1546 1546 1546 1545 1544 1542 1541 1539 1538 1536 1535 1532 1529 1527 1527 1526 1523 1522 1521 1522 1521 1520 1519 1518 1517 1516 1516 1515 1513 1511
1566 1566 1566 1566 1566 1566 1565 1565 1565 1565 1565 1565 1565 1565 1565 1565 1565 1565 1565 1564 1564 1565 1564 1564 1563 1563 1562 1561 1561 1560 1559 1558 1557 1556 1555 1554 1552 1551 1550 1548 1547 1546 1545 1545 1545 1545 1544 1543 1542 1541 1539 1538 1536 1534 1533 1531 1528 1525 1524 1523 1522 1521 1520 1519 1519 1519 1518 1516 1514 1513 1512 1512 1511 1510
1564 1564 1565 1565 1565 1565 1565 1564 1564 1564 1564 1564 1564 1564 1564 1564 1565 1565 1565 1564 1565 1564 1564 1563 1562 1561 1561 1560 1559 1559 1558 1557 1556 1555 1554 1553 1551 1550 1549 1547 1546 1544 1543 1543 1543 1543 1542 1541 1540 1539 1538 1536 1534 1532 1530 1529 1527 1524 1522 1521 1520 1520 1519 1518 1518 1517 1515 1513 1511 1509 1508 1508 1508 1507
1563 1563 1563 1563 1563 1563 1564 1564 1564 1564 1564 1564 1564 1564 1564 1565 1565 1565 1565 1564 1564 1563 1562 1561 1560 1560 1559 1559 1559 1558 1557 1556 1555 1554 1553 1552 1550 1549 1548 1547 1546 1544 1543 1542 1541 1540 1539 1539 1538 1537 1536 1534 1533 1531 1529 1526 1524 1523 1521 1519 1519 1518 1518 1517 1516 1514 1512 1510 1508 1506 1505 1504 1504 1503
1562 1562 1562 1562 1562 1562 1562 1563 1563 1563 1564 1563 1563 1563 1564 1564 1563 1563 1563 1562 1561 1561 1560 1559 1559 1558 1558 1558 1557 1557 1556 1555 1555 1553 1552 1551 1550 1548 1547 1546 1545 1544 1542 1541 1539 1538 1537 1536 1534 1532 1531 1530 1529 1528 1527 1524 1522 1521 1520 1519 1518 1517 1515 1514 1513 1511 1510 1509 1507 1503 1500 1498 1498 1498
1561 1561 1561 1561 1561 1561 1562 1562 1562 1563 1562 1562 1562 1561 1561 1561 1561 1561 1560 1559 1559 1559 1558 1557 1557 1557 1556 1556 1556 1556 1555 1555 1554 1552 1550 1549 1548 1547 1546 1545 1544 1543 1541 1540 1538 1537 1535 1533 1531 1528 1526 1524 1523 1522 1523 1524 1522 1519 1518 1517 1516 1514 1512 1510 1510 1508 1507 1506 1505 1501 1497 1493 1492 1492
1560 1560 1560 1560 1561 1562 1562 1562 1562 1561 1561 1560 1560 1560 1560 1560 1560 1560 1558 1557 1557 1557 1556 1556 1556 1555 1555 1555 1554 1554 1553 1552 1551 1549 1548 1548 1547 1546 1545 1544 1542 1541 1540 1539 1537 1536 1534 1532 1530 1528 1525 1522 1520 1519 1519 1521 1521 1519 1517 1514 1513 1511 1510 1508 1506 1505 1504 1502 1501 1498 1495 1491 1489 1488
1559 1559 1560 1561 1561 1561 1561 1560 1560 1560 1559 1559 1559 1559 1559 1559 1558 1557 1556 1556 1556 1555 1555 1554 1554 1553 1553 1552 1551 1551 1550 1549 1548 1547 1546 1546 1546 1544 1543 1542 1541 1540 1538 1537 1536 1534 1533 1531 1530 1528 1526 1523 1521 1518 1515 1514 1515 1517 1516 1514 1510 1508 1507 1504 1502 1501 1500 1498 1497 1495 1493 1490 1487 1486
1558 1558 1559 1560 1560 1560 1560 1559 1559 1559 1559 1559 1559 1558 1558 1557 1556 1555 1555 1555 1554 1553 1552 1552 1551 1551 1550 1550 1549 1549 1548 1547 1546 1546 1545 1545 1544 1543 1541 1540 1539 1537 1536 1534 1533 1532 1531 1530 1529 1528 1526 1524 1521 1518 1514 1510 1508 1509 1512 1512 1508 1505 1504 1502 1499 1497 1496 1495 1494 1492 1491 1488 1485 1482
1557 1558 1559 1559 1558 1558 1559 1559 1558 1558 1558 1558 1557 1557 1556 1555 1554 1554 1553 1553 1552 1551 1550 1550 1550 1549 1549 1549 1548 1547 1546 1546 1545 1544 1544 1543 1542 1541 1540 1538 1536 1535 1533 1532 1531 1530 1530 1529 1528 1527 1525 1523 1520 1518 1515 1511 1507 1504 1506 1507 1506 1503 1502 1500 1498 1495 1494 1492 1490 1488 1485 1483 1480 1478
1557 1557 1557 1557 1557 1557 1557 1557 1557 1557 1556 1555 1555 1554 1554 1553 1552 1552 1552 1551 1551 1550 1550 1549 1549 1548 1548 1548 1547 1546 1545 1544 1544 1543 1542 1541 1540 1538 1537 1536 1534 1533 1531 1530 1529 1528 1528 1527 1526 1524 1523 1521 1518 1516 1513 1509 1506 1503 1503 1503 1504 1502 1501 1499 1497 1494 1491 1489 1487 1483 1480 1477 1475 1472
1555 1555 1556 1556 1555 1555 1555 1555 1554 1554 1554 1553 1553 1552 1551 1551 1551 1550 1550 1550 1549 1549 1548 1548 1547 1546 1546 1545 1545 1543 1542 1541 1541 1540 1539 1537 1536 1535 1534 1533 1531 1531 1529 1528 1526 1525 1524 1524 1523 1521 1519 1517 1515 1512 1509 1506 1502 1501 1500 1500 1500 1499 1498 1496 1495 1492 1489 1487 1484 1480 1477 1476 1473 1469
1553 1554 1554 1554 1553 1553 1553 1552 1552 1552 1552 1551 1550 1549 1549 1549 1549 1548 1548 1547 1546 1546 1545 1544 1543 1543 1543 1542 1541 1540 1539 1539 1538 1537 1535 1534 1533 1532 1531 1530 1529 1528 1527 1525 1524 1522 1521 1520 1518 1517 1515 1513 1512 1509 1506 1503 1500 1497 1496 1495 1494 1494 1493 1492 1490 1488 1486 1484 1483 1479 1476 1474 1471 1467
1552 1552 1552 1551 1550 1550 1550 1550 1549 1549 1549 1549 1548 1547 1547 1547 1547 1546 1545 1544 1543 1543 1542 1541 1541 1540 1540 1540 1538 1538 1537 1536 1535 1533 1532 1531 1531 1530 1529 1528 1527 1526 1524 1523 1521 1519 1517 1516 1515 1514 1512 1510 1509 1507 1504 1501 1498 1495 1493 1491 1489 1488 1487 1486 1485 1483 1482 1480 1480 1478 1476 1474 1470 1465
1550 1550 1549 1548 1548 1548 1548 1547 1547 1547 1546 1545 1545 1544 1544 1544 1543 1543 1542 1542 1541 1540 1540 1539 1538 1537 1536 1535 1535 1534 1534 1533 1532 1531 1530 1530 1529 1528 1527 1526 1524 1523 1522 1520 1518 1516 1515 1513 1512 1511 1509 1507 1506 1505 1501 1498 1495 1492 1490 1487 1485 1483 1482 1480 1479 1477 1476 1474 1474 1474 1472 1470 1468 1464
1548 1547 1547 1546 1546 1546 1546 1545 1545 1544 1543 1543 1542 1542 1541 1541 1540 1540 1540 1539 1537 1536 1536 1535 1534 1533 1533 1532 1531 1531 1530 1529 1529 1528 1527 1526 1526 1524 1523 1523 1521 1520 1519 1518 1515 1513 1512 1510 1509 1508 1506 1504 1503 1501 1499 1496 1493 1490 1487 1484 1482 1480 1478 1476 1474 1471 1468 1466 1466 1466 1465 1463 1461 1459